{"data":{"norad_id":44794,"intl_designator":"2019-078B","name":"BEIDOU-3 M21 (C43)","alt_names":[],"object_type":"PAYLOAD","status":"ACTIVE","operator":null,"country":"PRC","launch_date":"2019-11-23","launch_site_code":"XICLF","launch_vehicle":null,"mission":null,"orbit_class":"UNKNOWN","rcs_meters":null,"size_class":null,"mass_kg":null,"dimensions":null,"purposes":["earth_obs","nav"],"wikipedia_slug":null,"has_3d_model":false,"image_url":null,"decayed_at":null,"tle_current":{"epoch":"2026-05-24T01:24:55.154016Z","epoch_age_seconds":152491,"freshness":"FRESH","line1":"1 44794U 19078B   26144.05897169 -.00000081  00000+0  00000+0 0  9993","line2":"2 44794  53.9315 300.6372 0004812  48.4717 311.5477  1.86227499 44209","mean_motion":1.86227499,"eccentricity":0.0004812,"inclination_deg":53.9315,"raan_deg":300.6372,"arg_perigee_deg":48.4717,"mean_anomaly_deg":311.5477,"bstar":0,"rev_number":4420,"period_min":773.24777905115,"perigee_km":21514.972686426,"apogee_km":21541.829938898,"semimajor_km":27906.538312662,"source":"CELESTRAK","updated_at":"2026-05-25T13:38:24.222936Z"}}}